This is the latest recevied weather packets stored in our database for station/object KC8SWY-15. If no packets are shown the sender has not sent any weather packets the latest 10 day(s).
| Time | Temp. | Humidity | Pressure | Rain* | Wind** | Luminosity | Snow |
|---|---|---|---|---|---|---|---|
| 1777750482 | 8.89° C | 43% | 1019.5 hPa | 0 mm | - | - | - |
| 1777750182 | 8.89° C | 45% | 1019.7 hPa | 0 mm | - | - | - |
| 1777749882 | 8.33° C | 43% | 1019.5 hPa | 0 mm | - | - | - |
| 1777749582 | 8.33° C | 44% | 1019.7 hPa | 0 mm | - | - | - |
| 1777749282 | 8.33° C | 45% | 1019.8 hPa | 0 mm | - | - | - |
| 1777748982 | 8.89° C | 43% | 1019.8 hPa | 0 mm | - | - | - |
| 1777748682 | 8.33° C | 44% | 1019.8 hPa | 0 mm | - | - | - |
| 1777748382 | 8.33° C | 45% | 1019.9 hPa | 0 mm | - | - | - |
| 1777748082 | 8.89° C | 47% | 1019.9 hPa | 0 mm | - | - | - |
| 1777747782 | 8.33° C | 47% | 1019.9 hPa | 0 mm | - | - | - |
| 1777747482 | 8.33° C | 44% | 1020 hPa | 0 mm | - | - | - |
| 1777747183 | 8.89° C | 44% | 1019.9 hPa | 0 mm | - | - | - |
| 1777746883 | 8.89° C | 47% | 1019.9 hPa | 0 mm | - | - | - |
| 1777746583 | 7.78° C | 48% | 1020 hPa | 0 mm | - | - | - |
| 1777746283 | 7.78° C | 44% | 1020 hPa | 0 mm | - | - | - |
| 1777745983 | 7.78° C | 46% | 1020 hPa | 0 mm | - | - | - |
| 1777745683 | 8.33° C | 45% | 1020.1 hPa | 0 mm | - | - | - |
| 1777745383 | 7.78° C | 49% | 1020.1 hPa | 0 mm | - | - | - |
| 1777745083 | 7.78° C | 48% | 1020 hPa | 0 mm | - | - | - |
| 1777744783 | 7.78° C | 44% | 1020.2 hPa | 0 mm | - | - | - |
| 1777744483 | 7.78° C | 45% | 1020.2 hPa | 0 mm | - | - | - |
| 1777744183 | 7.78° C | 45% | 1020.2 hPa | 0 mm | - | - | - |
| 1777743883 | 7.78° C | 44% | 1020.2 hPa | 0 mm | - | - | - |
| 1777743583 | 7.78° C | 45% | 1020.3 hPa | 0 mm | - | - | - |
| 1777743283 | 8.33° C | 44% | 1020.3 hPa | 0 mm | - | - | - |
* Rain latest hour (hover to see other rain measurements)
** Current wind speed in m/s (hover to see current wind gust speed)